Location: Saratoga Springs
(43.0831°N, 73.7850°W)
Time: 20:49:18
(UTC-04:00)

Vanguard 2 - Visible Passes

Search period start: 16 April 2024 00:00
Search period end: 26 April 2024 00:00
Orbit: 552 x 2917 km, 32.9° (Epoch: 16 April)

Date Brightness Start Highest point End Pass type
(mag) Time Alt. Az. Time Alt. Az. Time Alt. Az.
16 Apr 10.8 02:24:18 31° SSE 02:26:58 33° SE 02:41:11 10° E visible
16 Apr 10.6 04:25:25 22° SW 04:37:40 53° SSE 04:52:39 10° E visible
17 Apr 11.5 00:36:32 14° ESE 00:36:32 14° ESE 00:40:19 10° ESE visible
17 Apr 10.6 02:37:38 35° S 02:41:18 38° SSE 02:56:24 10° E visible
17 Apr 10.5 04:38:45 19° WSW 04:52:20 56° S 05:07:26 10° E visible
18 Apr 11.3 00:49:50 19° ESE 00:49:50 19° ESE 00:57:11 10° E visible
18 Apr 10.5 02:50:56 38° S 02:55:42 44° SSE 03:11:26 10° E visible
18 Apr 10.5 04:52:02 15° WSW 05:06:59 58° S 05:22:10 10° ESE visible
19 Apr 11.0 01:03:05 25° SE 01:03:05 25° SE 01:13:08 10° E visible
19 Apr 10.4 03:04:11 38° SSW 03:10:11 49° SSE 03:26:20 10° E visible
19 Apr 10.5 05:05:17 12° WSW 05:21:40 59° S 05:36:49 10° ESE visible
20 Apr 10.8 01:16:17 31° SE 01:16:17 31° SE 01:28:36 10° E visible
20 Apr 10.4 03:17:23 36° SW 03:24:42 53° SSE 03:41:10 10° E visible
20 Apr 10.5 05:19:19 10° WSW 05:36:20 59° S 05:51:25 10° ESE visible
21 Apr 10.6 01:29:27 37° SE 01:29:27 37° SE 01:43:47 10° E visible
21 Apr 10.4 03:30:33 33° SW 03:39:16 57° SSE 03:55:55 10° E visible
21 Apr 10.5 05:34:01 10° W 05:50:57 57° S 06:05:56 10° ESE visible
21 Apr 11.4 23:41:30 13° ESE 23:41:30 13° ESE 23:43:25 10° E visible
22 Apr 10.3 01:42:36 43° SSE 01:42:56 43° SSE 01:58:48 10° E visible
22 Apr 10.4 03:43:42 28° WSW 03:53:52 59° S 04:10:37 10° ESE visible
22 Apr 11.2 23:54:37 18° ESE 23:54:37 18° ESE 23:59:29 10° E visible
23 Apr 10.2 01:55:43 47° S 01:57:17 48° SSE 02:13:41 10° E visible
23 Apr 10.4 03:56:48 23° WSW 04:08:29 60° S 04:25:15 10° ESE visible
24 Apr 10.9 00:07:43 23° ESE 00:07:43 23° ESE 00:15:00 10° E visible
24 Apr 10.1 02:08:49 48° S 02:11:42 52° SSE 02:28:29 10° E visible
24 Apr 10.4 04:09:54 18° WSW 04:23:06 59° S 04:39:48 10° ESE visible
25 Apr 10.7 00:20:48 29° ESE 00:20:48 29° ESE 00:30:11 10° E visible
25 Apr 10.1 02:21:54 46° SSW 02:26:11 55° SSE 02:43:13 10° E visible
25 Apr 10.4 04:22:59 13° W 04:37:40 57° S 04:54:16 10° ESE visible
